Weather History for Deming, NM

Change the Weather History Date:

Sunday, December 30, 2012

  Actual Average Record
Temperature  
Mean Temperature 44 °F 40 °F  
Max Temperature 53 °F 55 °F 72 °F (1955)
Min Temperature 34 °F 25 °F 8 °F (1954)
Degree Days  
Heating Degree Days 22    
Moisture  
Dew Point 17 °F    
Average Humidity 34    
Maximum Humidity 41    
Minimum Humidity 26    
Precipitation  
Precipitation 0.01 in 0.03 in 0.19 in (1960)
Month to date precipitation 0.47 0.85  
Year to date precipitation 4.27 11.51  
Sea Level Pressure  
Sea Level Pressure 29.89 in    
Wind  
Wind Speed 11 mph (ENE)    
Max Wind Speed 30 mph    
Max Gust Speed 39 mph    
Visibility 10 miles    
Events Rain    
T = Trace of Precipitation, MM = Missing Value Source: NWS Daily Summary

Daily Weather History Graph

Daily Weather History Graph

Search for Another Location

Airport:

Trip Planner

Search our weather history database for the weather conditions in past years. The results will help you decide how hot, cold, wet, or windy it might be!

Date:

Astronomy

Dec. 30, 2012 Rise Set
Actual Time 7:11 AM MST 5:15 PM MST
Civil Twilight 6:44 AM MST 5:42 PM MST
Nautical Twilight 6:14 AM MST 6:13 PM MST
Astronomical Twilight 5:44 AM MST 6:43 PM MST
Moon 7:40 PM MST (12/30) 8:30 AM MST (12/30)
Length of Visible Light 10h 58m
Length of Day
10h 04m
Waning Gibbous, 95% of the Moon is Illuminated
Dec 30
Waning Gibbous
Jan 4
Last Quarter
Jan 11
New
Jan 18
First Quarter
Jan 26
Full

Hourly Weather History & Observations

Time (MST) Temp. Windchill Dew Point Humidity Pressure Visibility Wind Dir Wind Speed Gust Speed Precip Events Conditions
12:53 AM 39.0 °F 31.8 °F 12.9 °F 34% 30.00 in 10.0 mi ENE 11.5 mph - N/A   Clear
1:53 AM 37.9 °F 31.5 °F 12.9 °F 36% 29.99 in 10.0 mi ENE 9.2 mph - N/A   Clear
2:53 AM 37.9 °F 30.5 °F 12.9 °F 36% 29.97 in 10.0 mi ENE 11.5 mph - N/A   Clear
3:53 AM 37.0 °F 30.4 °F 12.9 °F 37% 29.96 in 10.0 mi ENE 9.2 mph - N/A   Clear
4:53 AM 37.0 °F 30.4 °F 12.9 °F 37% 29.96 in 10.0 mi ENE 9.2 mph - N/A   Clear
5:53 AM 36.0 °F 29.0 °F 12.9 °F 39% 29.98 in 10.0 mi ENE 9.2 mph - N/A   Clear
6:53 AM 34.0 °F 26.0 °F 12.9 °F 42% 30.01 in 10.0 mi ENE 10.4 mph - N/A   Clear
7:53 AM 34.0 °F 27.2 °F 12.9 °F 42% 30.00 in 10.0 mi ENE 8.1 mph - N/A   Clear
8:53 AM 37.9 °F 31.5 °F 14.0 °F 38% 30.01 in 10.0 mi ENE 9.2 mph - N/A   Clear
9:53 AM 42.1 °F 35.2 °F 15.1 °F 34% 29.99 in 10.0 mi East 12.7 mph - N/A   Mostly Cloudy
10:53 AM 50.0 °F - 17.1 °F 27% 29.94 in 10.0 mi East 10.4 mph - N/A   Mostly Cloudy
11:53 AM 51.1 °F - 17.1 °F 26% 29.89 in 10.0 mi ESE 12.7 mph - N/A   Mostly Cloudy
12:53 PM 48.9 °F - 17.1 °F 28% 29.86 in 10.0 mi East 13.8 mph - N/A   Overcast
1:53 PM 48.0 °F - 17.1 °F 29% 29.82 in 10.0 mi East 12.7 mph - N/A   Overcast
2:53 PM 48.9 °F - 18.0 °F 29% 29.80 in 10.0 mi ENE 11.5 mph - N/A   Scattered Clouds
3:53 PM 46.9 °F - 17.1 °F 30% 29.79 in 10.0 mi ENE 10.4 mph - N/A   Overcast
4:53 PM 45.0 °F 40.1 °F 17.1 °F 33% 29.79 in 10.0 mi NE 9.2 mph - N/A   Clear
5:53 PM 43.0 °F 36.8 °F 16.0 °F 34% 29.80 in 10.0 mi ENE 11.5 mph - N/A   Scattered Clouds
6:53 PM 42.1 °F 37.1 °F 17.1 °F 37% 29.82 in 10.0 mi NE 8.1 mph - N/A   Overcast
7:53 PM 44.1 °F 39.5 °F 18.0 °F 35% 29.81 in 10.0 mi NE 8.1 mph - N/A   Overcast
8:53 PM 44.1 °F 42.5 °F 19.9 °F 38% 29.83 in 10.0 mi ENE 3.5 mph - 0.00 in   Overcast
9:53 PM 42.1 °F 38.4 °F 27.0 °F 55% 29.82 in 8.0 mi NW 5.8 mph - 0.00 in Rain Light Rain
10:53 PM 44.1 °F 39.0 °F 30.0 °F 58% 29.80 in 10.0 mi SSW 9.2 mph - 0.00 in   Overcast
11:53 PM 42.1 °F 31.9 °F 34.0 °F 73% 29.83 in 6.0 mi WSW 26.5 mph 38.0 mph 0.00 in Rain Light Rain